Presure
292 254 244 200 78 170 158 156 183 155 161 170 107 163 164 176 140 146 116 108 162 164 133 166 169 172 179 182 181 181 170 149 90 78 76 80 98 152 107 91 94 179 174 179
344 267 235 202 75 172 166 153 181 167 172 166 184 186 194 155 107 112 172 174 116 183 160 172 174 176 178 180 82 112 107 101 75 87 87 84 137 85 163 162 177 130 178 181
367 260 230 230 195 157 166 92 157 182 154 155 121 166 168 141 101 158 129 161 160 160 176 179 179 181 157 108 113 160 148 85 88 134 91 91 85 163 116 175 180 172 178 182
391 258 254 218 200 179 170 165 153 167 92 164 150 175 189 187 189 185 177 180 180 184 100 179 182 178 178 150 170 90 118 160 88 159 90 91 161 94 172 182 179 174 177 184
351 243 247 224 194 184 169 169 87 129 164 103 155 183 182 182 180 180 181 187 109 182 178 180 179 179 75 123 166 83 90 87 96 92 118 100 91 174 179 175 169 168 180 183
264 220 234 223 207 185 177 172 103 183 83 167 140 166 173 176 175 179 153 162 92 103 84 85 111 118 173 159 106 166 111 158 93 98 143 115 175 178 173 170 177 175 182 191
245 222 227 223 206 185 197 166 183 189 187 180 156 121 109 159 123 167 168 175 138 166 177 174 152 90 90 89 127 143 112 109 134 162 167 171 177 180 170 175 176 179 185 192
230 220 226 223 193 180 177 188 174 191 178 175 177 157 111 161 155 156 155 156 103 93 84 89 87 93 148 162 154 90 152 100 153 164 166 169 180 184 178 178 181 185 190 203
219 232 228 214 186 185 178 198 194 168 181 176 178 168 168 144 116 86 154 88 85 87 113 144 96 164 160 153 120 107 154 166 163 166 172 181 177 181 177 183 186 191 190 160
218 218 234 199 180 187 201 195 188 173 164 166 147 145 154 151 93 150 88 156 165 168 165 161 163 161 163 166 158 156 161 165 163 171 178 178 171 181 183 187 188 183 142 139
218 219 220 196 184 178 185 201 197 192 178 177 165 157 167 164 169 168 161 166 159 155 161 160 160 160 163 165 177 173 156 162 176 174 186 196 187 182 186 188 191 139 136 131
217 217 205 216 184 180 176 178 203 196 188 185 185 166 157 155 152 158 157 163 166 165 158 156 163 146 146 180 158 144 163 172 182 184 174 184 218 185 191 141 133 128 135 125
215 219 216 240 189 185 182 179 198 202 198 192 183 169 165 163 165 159 181 159 158 165 185 185 186 164 163 163 160 165 162 177 183 209 186 183 186 192 138 139 128 130 153 138
225 218 218 208 218 188 178 175 176 200 186 184 197 159 159 188 188 190 192 179 162 163 158 160 161 163 190 157 200 207 179 221 186 184 184 188 138 135 133 136 138 148 144 149
244 227 216 214 207 193 184 180 177 170 177 176 186 179 167 163 161 168 197 195 196 195 195 197 200 202 171 169 214 218 217 201 185 190 149 130 128 133 136 141 140 138 140 140
305 241 226 217 223 212 195 188 186 181 178 175 173 167 169 171 171 170 171 197 201 203 205 208 208 211 213 223 224 227 184 184 134 134 129 135 137 143 146 136 156 139 143 171
212 274 231 226 223 226 225 203 233 226 182 181 179 186 177 177 178 177 170 174 202 199 214 219 224 223 221 207 216 206 184 134 138 140 173 156 155 137 144 149 134 140 140 155
151 180 246 226 223 227 229 227 220 205 199 233 226 232 227 182 206 178 178 178 175 169 174 170 172 171 177 159 183 193 144 201 146 150 167 154 170 140 135 163 177 185 174 190
222 145 254 251 228 221 216 216 223 227 222 216 208 204 202 204 191 181 189 183 183 175 172 180 178 183 183 193 194 203 151 147 138 155 197 155 141 137 168 182 168 189 190 202
213 155 150 218 264 217 214 212 220 220 220 218 219 216 209 194 189 190 198 197 189 184 186 182 146 195 199 201 148 145 143 157 134 152 147 142 183 166 193 188 198 203 200 208
186 195 173 170 160 200 236 225 218 217 213 213 223 227 230 229 229 225 212 200 158 162 198 190 178 127 164 140 200 141 206 157 132 148 166 197 185 197 201 204 203 207 214 213
207 189 165 178 149 143 174 210 193 162 168 215 228 226 227 222 224 224 215 195 142 156 181 175 151 134 140 143 177 187 166 179 158 159 197 179 186 208 199 211 198 213 215 215
213 198 162 138 155 203 150 162 204 148 201 233 140 142 137 143 187 240 244 207 148 144 241 189 148 222 141 211 136 130 167 148 134 198 192 195 199 206 216 187 217 183 202 225
204 200 196 166 151 159 164 147 204 159 158 159 204 189 150 162 163 165 177 226 145 213 153 143 139 206 166 149 139 192 190 202 197 203 192 203 209 189 220 208 227 200 226 215
208 207 199 196 169 155 139 158 178 170 145 159 156 150 155 153 158 164 158 151 141 129 139 139 174 169 209 203 188 189 209 202 200 205 215 194 211 196 222 194 204 212 231 215
216 210 206 199 200 190 163 173 194 148 162 163 148 164 183 193 164 141 158 148 154 165 170 191 206 205 186 194 205 208 205 206 217 181 197 213 210 208 217 206 233 212 229 209
Wind_Speed
116 113 105 100 15 94 94 90 94 79 79 73 56 77 66 71 54 66 53 51 66 64 50 61 59 59 55 51 49 47 47 46 34 34 41 45 47 46 52 51 58 54 54 55
81 110 100 106 25 100 97 87 93 82 84 76 86 84 82 62 53 51 59 62 53 60 61 61 63 61 56 52 31 42 38 33 38 40 44 48 47 47 50 54 58 60 58 59
50 101 100 107 106 85 95 42 79 94 68 55 51 58 60 72 51 61 56 63 62 64 64 63 62 60 51 40 39 53 51 40 40 53 50 54 47 55 56 62 63 57 61 62
50 109 113 105 103 103 98 96 75 84 41 70 50 69 75 71 61 62 63 63 63 63 33 63 62 60 58 51 55 48 47 54 44 56 54 57 56 58 62 67 64 62 64 66
68 102 105 110 104 104 101 97 45 61 77 45 49 71 68 59 60 65 63 62 55 62 63 64 63 61 33 47 56 46 53 49 57 56 59 64 52 64 67 62 63 62 68 68
104 101 108 113 111 105 100 97 57 101 42 74 52 55 56 61 65 64 57 58 41 42 38 40 46 51 57 57 54 60 58 61 58 63 65 55 68 68 65 64 68 68 70 73
95 95 102 111 105 101 102 86 95 99 88 83 55 49 50 60 50 62 63 64 53 62 65 62 54 53 56 54 57 60 60 59 64 67 66 69 71 70 65 69 71 73 74 74
89 86 99 105 96 94 95 98 86 94 87 85 75 52 50 65 67 62 62 61 51 49 51 53 56 59 62 62 64 51 64 67 60 68 66 67 74 74 72 74 75 77 77 78
81 88 102 102 95 96 93 93 96 78 92 84 75 66 68 64 52 44 64 48 53 58 62 64 63 62 63 65 68 70 67 75 71 71 74 79 73 76 75 78 78 80 79 57
80 89 104 96 94 97 100 101 98 85 74 72 72 65 68 68 46 67 52 63 62 64 65 62 62 64 66 69 68 66 73 76 70 76 80 77 71 77 80 80 81 78 52 54
80 86 95 95 90 90 92 100 96 92 86 79 71 66 72 77 77 75 65 64 66 65 65 65 67 68 69 73 78 78 64 71 82 80 85 85 81 81 83 83 85 53 56 59
78 85 93 106 96 94 89 88 100 97 91 88 85 75 77 79 76 70 69 69 72 70 69 70 70 68 65 80 73 50 78 84 87 85 78 82 85 85 86 52 54 57 61 59
80 83 94 103 99 95 91 89 97 100 98 90 88 73 78 79 79 80 85 76 71 72 80 80 81 77 78 78 74 80 71 86 86 90 86 83 88 89 51 56 57 60 70 74
83 89 90 90 94 94 91 89 89 101 94 87 93 78 77 92 94 96 92 79 74 77 75 77 78 80 87 71 92 94 87 90 87 87 86 88 50 51 56 61 66 71 77 82
86 81 84 89 94 94 92 93 93 83 81 84 91 85 82 81 80 77 89 90 92 90 92 94 97 97 84 80 94 90 89 88 90 89 56 48 53 57 62 67 72 76 80 83
67 83 84 89 89 93 97 99 95 89 87 79 77 78 79 86 83 80 84 97 96 99 99 100 98 98 96 92 88 84 91 91 44 47 50 54 59 63 68 74 77 80 85 95
53 79 85 87 91 92 98 94 98 106 91 87 82 94 94 88 88 84 81 85 101 99 103 101 96 93 91 86 85 91 90 46 50 54 75 66 64 68 74 80 75 81 83 93
44 48 88 85 89 93 83 92 92 94 93 97 95 105 110 90 96 86 88 87 87 85 86 83 87 84 88 67 92 96 49 97 56 59 68 64 71 74 76 87 93 99 100 109
74 45 71 87 82 79 79 81 84 86 91 95 97 97 98 97 92 89 90 89 89 87 87 91 88 95 93 96 95 97 60 57 58 63 88 70 73 77 88 95 98 105 111 117
79 55 47 69 81 73 75 80 84 87 87 88 90 94 96 96 93 91 91 91 90 92 94 90 45 97 96 95 55 57 57 64 62 69 74 76 88 87 99 100 109 113 116 117
74 74 59 57 50 64 71 78 83 85 82 89 90 95 96 95 92 95 90 91 51 59 96 88 77 47 68 58 89 59 89 72 65 77 82 94 93 99 106 110 114 118 118 122
89 76 64 63 55 54 61 77 66 54 57 83 90 89 88 88 88 90 91 81 40 65 76 66 57 55 59 63 76 82 77 84 79 84 95 89 100 107 108 115 104 121 123 122
94 85 71 56 66 78 60 60 79 52 75 75 43 42 39 42 68 90 89 91 46 47 90 72 59 93 62 92 65 63 74 82 73 97 99 104 108 113 116 101 125 110 114 134
97 93 85 77 63 71 66 55 82 63 61 60 79 73 49 56 56 56 62 79 51 85 59 58 61 95 76 74 70 86 85 97 99 101 96 108 114 95 123 114 131 112 135 124
103 101 96 91 80 72 56 68 73 66 54 64 60 54 58 56 58 61 56 59 62 52 61 63 69 77 91 90 80 82 97 96 98 107 112 95 116 109 125 108 122 123 136 123
110 108 105 98 99 92 77 79 91 60 63 64 58 64 75 78 65 56 63 66 69 71 72 86 94 90 76 87 96 99 96 104 108 86 107 113 110 108 124 118 136 119 139 110
Wind_Direction
199 199 198 200 259 208 217 223 216 226 229 230 225 232 229 233 236 238 232 236 246 249 252 256 261 264 265 266 269 270 271 268 273 280 285 282 287 294 285 294 295 307 305 305
211 197 194 197 245 207 212 224 219 227 228 229 232 235 234 233 233 234 241 245 242 249 254 257 259 261 263 265 270 266 272 280 284 283 286 285 290 287 297 301 304 300 305 305
220 193 194 195 201 209 212 223 226 221 226 226 229 226 227 235 237 239 240 244 247 250 253 254 257 259 264 266 267 270 273 283 282 281 288 293 283 295 296 301 301 300 302 304
202 191 189 195 200 207 211 217 225 225 227 231 219 235 237 238 237 239 241 244 246 249 260 255 258 259 261 267 268 274 273 278 284 282 290 292 291 293 296 298 300 300 302 305
186 190 189 192 199 205 213 215 232 227 229 231 223 233 237 238 238 241 243 245 243 248 251 255 257 259 272 274 269 284 282 285 285 286 288 289 290 293 296 299 296 296 301 304
186 190 190 191 199 206 211 215 227 221 238 230 232 230 234 238 240 242 245 246 256 255 268 268 268 262 263 264 273 273 278 276 285 289 286 289 292 294 294 296 299 298 301 302
187 192 191 194 200 208 208 220 217 219 228 230 227 235 236 235 241 240 243 247 255 252 254 257 263 273 273 275 271 264 278 280 281 282 286 289 291 294 294 296 296 298 300 300
189 193 195 197 205 211 215 215 221 220 229 231 232 230 242 237 240 242 244 246 252 265 268 268 271 271 267 267 271 279 270 283 279 283 287 291 292 294 295 295 296 298 300 301
192 194 196 200 208 212 218 216 218 224 225 231 232 229 235 241 249 254 248 259 262 265 265 262 269 262 264 267 274 278 273 277 280 284 286 288 293 293 293 294 296 297 298 286
195 196 198 206 212 212 212 216 219 225 229 232 229 226 233 243 254 243 258 247 253 253 254 256 261 264 266 270 270 272 274 277 281 284 286 290 288 292 293 295 296 295 282 284
203 198 202 209 213 218 218 218 222 225 231 231 232 233 238 242 245 247 248 249 251 252 257 259 260 263 267 268 271 272 271 279 279 285 284 288 290 291 293 293 294 284 285 284
207 205 205 206 213 218 222 224 221 225 229 232 235 232 236 238 243 247 249 250 250 253 254 258 263 262 266 268 272 270 276 277 278 282 287 289 287 291 291 282 282 281 285 284
211 207 209 207 212 217 222 225 224 225 228 231 235 235 239 242 245 245 251 248 252 256 261 263 265 262 265 268 271 274 278 278 280 281 286 288 289 288 285 285 282 285 288 288
212 211 210 211 214 217 221 225 228 228 229 232 234 234 237 244 247 249 253 255 255 256 257 259 262 264 271 270 276 277 277 276 281 283 286 287 283 285 284 286 288 287 285 286
213 213 213 215 216 218 219 224 227 228 229 232 234 235 238 243 246 253 256 257 257 260 263 265 267 269 270 274 274 274 274 277 282 283 282 278 279 284 286 286 286 285 285 287
223 211 214 217 217 219 221 224 228 230 233 234 238 241 243 245 248 248 249 255 259 261 263 265 267 269 271 272 273 274 277 280 275 278 279 283 286 285 285 285 287 286 287 293
220 216 212 215 218 219 221 224 226 227 232 234 235 238 241 242 245 247 251 254 257 259 262 264 266 267 269 271 269 269 278 275 279 281 283 285 288 284 285 285 289 291 293 295
229 226 215 214 218 220 219 224 226 229 232 234 236 239 241 245 246 247 248 251 254 258 261 266 267 270 271 269 273 274 277 278 281 284 286 288 292 285 287 291 296 297 297 297
205 236 226 218 220 221 221 227 229 230 232 233 235 237 241 243 245 246 249 251 254 258 261 262 263 265 268 269 272 273 278 282 284 289 285 287 286 287 294 296 290 296 297 298
212 232 229 218 224 220 221 226 231 232 233 236 239 241 242 243 245 247 249 251 253 255 258 261 270 265 268 270 279 282 285 285 284 287 284 286 294 294 296 296 297 297 298 300
220 217 222 221 226 221 224 228 232 234 235 237 239 241 244 247 249 250 251 251 259 260 258 261 266 266 272 272 272 282 278 282 285 286 290 292 294 293 296 296 296 299 301 302
221 224 227 222 231 232 227 226 232 233 234 238 241 243 245 246 249 251 251 254 265 257 262 268 272 273 276 277 276 277 280 280 287 286 289 294 295 294 296 296 295 301 301 302
221 228 228 229 231 216 234 234 229 242 235 239 243 246 246 254 252 250 252 254 266 270 261 268 272 265 276 271 280 282 291 281 287 289 293 295 296 297 294 290 299 292 295 304
223 226 223 228 234 234 234 244 229 243 246 247 240 244 254 254 256 258 260 256 266 259 273 273 271 267 273 276 281 288 291 287 291 291 292 294 296 290 296 300 298 296 303 301
221 223 227 229 232 236 241 240 234 239 244 248 250 255 256 258 261 265 267 258 258 268 270 275 283 271 275 279 291 289 286 291 293 293 291 288 296 292 298 295 297 298 305 299
218 222 225 229 228 233 240 240 235 252 247 253 259 254 254 248 256 264 268 266 267 277 279 274 274 277 290 288 287 287 287 291 288 284 293 296 300 296 296 298 302 301 303 304